Hourly Data Report for August 25, 2021

SECHELT AUT
BRITISH COLUMBIA
Current Station Operator: ECCC - MSC

49°27'28.788" N
123°42'54.945" W
86.20 m
1047172
71638
VOU

Download Data

Hourly Data (August 2021)
Hourly Data Report for August 25, 2021
TIME
LST
Temp Definition
°C
Dew Point Definition
°C
Rel Hum Definition
%
Precip. Amount Definition
mm

Wind Dir Definition
10's deg

Wind Spd Definition
km/h
Visibility Definition
km
Stn Press Definition
kPa
Hmdx Definition


Wind Chill Definition


Weather Definition


00:00 14.5 9.4 71 0.0 31 3   100.43     LegendNANA
01:00 12.8 8.6 76 0.0 36 3   100.46     LegendNANA
02:00 12.4 8.9 79 0.0 34 2   100.46     LegendNANA
03:00 11.4 8.0 80 0.0 4 2   100.49     LegendNANA
04:00 12.0 8.1 77 0.0 33 3   100.50     LegendNANA
05:00 10.9 8.1 83 0.0 34 3   100.51     LegendNANA
06:00 11.6 8.6 82 0.0 34 4   100.53     LegendNANA
07:00 14.1 9.9 76 0.0 0 1   100.57     LegendNANA
08:00 17.7 12.3 71 0.0 16 8   100.55     LegendNANA
09:00 19.5 13.6 69 0.0 15 5   100.58     LegendNANA
10:00 20.5 12.8 61 0.0 15 8   100.59     LegendNANA
11:00 20.2 11.9 59 0.0 15 12   100.55     LegendNANA
12:00 19.3 11.8 62 0.0 16 17   100.53     LegendNANA
13:00 21.8 10.9 50 0.0 14 15   100.49     LegendNANA
14:00 20.5 11.0 55 0.0 15 9   100.47     LegendNANA
15:00 21.1 10.9 52 0.0 15 14   100.45     LegendNANA
16:00 22.4 8.1 40 0.0 15 15   100.41     LegendNANA
17:00 22.1 8.2 41 0.0 14 15   100.41     LegendNANA
18:00 21.6 7.9 41 0.0 13 12   100.40     LegendNANA
19:00 21.0 7.5 42 0.0 14 9   100.40     LegendNANA
20:00 20.0 7.6 45 0.0 12 6   100.46     LegendNANA
21:00 19.0 9.3 53 0.0 12 3   100.50     LegendNANA
22:00 17.6 9.8 60 0.0 10 5   100.50     LegendNANA
23:00 17.6 10.1 61 0.0 33 3   100.53     LegendNANA

Notes on Data Quality.

Legend

  • E = Estimated
  • M = Missing
  • NA = Not Available*
  • [empty] = Indicates an unobserved value
Date modified: